Waarnemingen

Advertentie
Mijn weer
Falsterbo, Zweden (2616): temperatuur & dauwpunt: 09.08.2020 15:00:00 - 15.08.2020 15:00:00 (CEST)Falsterbo, Zweden (2616): windsnelheid: 09.08.2020 15:00:00 - 15.08.2020 15:00:00 (CEST)Falsterbo, Zweden (2616): windrichting: 09.08.2020 15:00:00 - 15.08.2020 15:00:00 (CEST)Falsterbo, Zweden (2616): luchtdruk: 09.08.2020 15:00:00 - 15.08.2020 15:00:00 (CEST)Falsterbo, Zweden (2616): zicht: 09.08.2020 15:00:00 - 15.08.2020 15:00:00 (CEST)
Datum & Tijd tt [°C] td [°C] ff [km/u] ff [kn] dd ppp [hPa] vv [km]
15.08.2020 15:00:00 - - - - - - -
15.08.2020 14:00:00 26,4 19,3 11 6 ZZO 1017,0 17
15.08.2020 13:00:00 - - - - - - -
15.08.2020 12:00:00 - - - - - - -
15.08.2020 11:00:00 24,0 17,3 7 4 OZO 1016,7 26
15.08.2020 10:00:00 - - - - - - -
15.08.2020 09:00:00 - - - - - - -
15.08.2020 08:00:00 18,6 16,0 11 6 O 1015,6 28
15.08.2020 07:00:00 - - - - - - -
15.08.2020 06:00:00 - - - - - - -
15.08.2020 05:00:00 - - - - - - -
15.08.2020 04:00:00 - - - - - - -
15.08.2020 03:00:00 - - - - - - -
15.08.2020 02:00:00 - - - - - - -
15.08.2020 01:00:00 - - - - - - -
15.08.2020 00:00:00 - - - - - - -
14.08.2020 23:00:00 - - - - - - -
14.08.2020 22:00:00 - - - - - - -
14.08.2020 21:00:00 - - - - - - -
14.08.2020 20:00:00 20,9 17,3 7 4 ZZO 1014,1 23
14.08.2020 19:00:00 - - - - - - -
14.08.2020 18:00:00 - - - - - - -
14.08.2020 17:00:00 24,0 18,4 11 6 ZZO 1013,9 25
14.08.2020 16:00:00 - - - - - - -
14.08.2020 15:00:00 - - - - - - -
14.08.2020 14:00:00 24,4 17,1 18 10 ZO 1014,4 26
14.08.2020 13:00:00 - - - - - - -
14.08.2020 12:00:00 - - - - - - -
14.08.2020 11:00:00 22,9 18,0 18 10 OZO 1015,1 24
14.08.2020 10:00:00 - - - - - - -
14.08.2020 09:00:00 - - - - - - -
14.08.2020 08:00:00 17,0 15,9 18 10 O 1014,9 30
14.08.2020 07:00:00 - - - - - - -
14.08.2020 06:00:00 - - - - - - -
14.08.2020 05:00:00 - - - - - - -
14.08.2020 04:00:00 - - - - - - -
14.08.2020 03:00:00 - - - - - - -
14.08.2020 02:00:00 - - - - - - -
14.08.2020 01:00:00 - - - - - - -
14.08.2020 00:00:00 - - - - - - -
13.08.2020 23:00:00 - - - - - - -
13.08.2020 22:00:00 - - - - - - -
13.08.2020 21:00:00 - - - - - - -
13.08.2020 20:00:00 19,2 15,1 14 8 OZO 1016,8 40
13.08.2020 19:00:00 - - - - - - -
13.08.2020 18:00:00 - - - - - - -
13.08.2020 17:00:00 22,3 15,4 18 10 ZZO 1017,4 45
13.08.2020 16:00:00 - - - - - - -
13.08.2020 15:00:00 - - - - - - -
13.08.2020 14:00:00 22,8 16,1 25 14 ZO 1018,1 50
13.08.2020 13:00:00 - - - - - - -
13.08.2020 12:00:00 - - - - - - -
13.08.2020 11:00:00 21,9 16,4 22 12 OZO 1018,9 40
13.08.2020 10:00:00 - - - - - - -
13.08.2020 09:00:00 - - - - - - -
13.08.2020 08:00:00 17,8 16,5 18 10 O 1018,9 35
13.08.2020 07:00:00 - - - - - - -
13.08.2020 06:00:00 - - - - - - -
13.08.2020 05:00:00 - - - - - - -
13.08.2020 04:00:00 - - - - - - -
13.08.2020 03:00:00 - - - - - - -
13.08.2020 02:00:00 - - - - - - -
13.08.2020 01:00:00 - - - - - - -
13.08.2020 00:00:00 - - - - - - -
12.08.2020 23:00:00 - - - - - - -
12.08.2020 22:00:00 - - - - - - -
12.08.2020 21:00:00 - - - - - - -
12.08.2020 20:00:00 19,5 15,4 25 14 OZO 1020,9 40
12.08.2020 19:00:00 - - - - - - -
12.08.2020 18:00:00 - - - - - - -
12.08.2020 17:00:00 21,5 16,5 25 14 OZO 1022,1 30
12.08.2020 16:00:00 - - - - - - -
12.08.2020 15:00:00 - - - - - - -
12.08.2020 14:00:00 22,7 15,5 29 16 OZO 1023,3 50
12.08.2020 13:00:00 - - - - - - -
12.08.2020 12:00:00 - - - - - - -
12.08.2020 11:00:00 21,6 16,4 29 16 OZO 1023,6 50
12.08.2020 10:00:00 - - - - - - -
12.08.2020 09:00:00 - - - - - - -
12.08.2020 08:00:00 18,0 16,3 25 14 O 1023,4 45
12.08.2020 07:00:00 - - - - - - -
12.08.2020 06:00:00 - - - - - - -
12.08.2020 05:00:00 - - - - - - -
12.08.2020 04:00:00 - - - - - - -
12.08.2020 03:00:00 - - - - - - -
12.08.2020 02:00:00 - - - - - - -
12.08.2020 01:00:00 - - - - - - -
12.08.2020 00:00:00 - - - - - - -
11.08.2020 23:00:00 - - - - - - -
11.08.2020 22:00:00 - - - - - - -
11.08.2020 21:00:00 - - - - - - -
11.08.2020 20:00:00 19,9 16,5 25 14 OZO 1023,6 40
11.08.2020 19:00:00 - - - - - - -
11.08.2020 18:00:00 - - - - - - -
11.08.2020 17:00:00 21,9 16,4 29 16 OZO 1023,9 40
11.08.2020 16:00:00 - - - - - - -
11.08.2020 15:00:00 - - - - - - -
11.08.2020 14:00:00 22,6 15,4 32 18 OZO 1024,6 40
11.08.2020 13:00:00 - - - - - - -
11.08.2020 12:00:00 - - - - - - -
11.08.2020 11:00:00 22,0 17,2 32 18 OZO 1024,3 35
11.08.2020 10:00:00 - - - - - - -
11.08.2020 09:00:00 - - - - - - -
11.08.2020 08:00:00 18,8 16,8 25 14 O 1023,5 40
11.08.2020 07:00:00 - - - - - - -
11.08.2020 06:00:00 - - - - - - -
11.08.2020 05:00:00 - - - - - - -
11.08.2020 04:00:00 - - - - - - -
11.08.2020 03:00:00 - - - - - - -
11.08.2020 02:00:00 - - - - - - -
11.08.2020 01:00:00 - - - - - - -
11.08.2020 00:00:00 - - - - - - -
10.08.2020 23:00:00 - - - - - - -
10.08.2020 22:00:00 - - - - - - -
10.08.2020 21:00:00 - - - - - - -
10.08.2020 20:00:00 21,0 18,6 29 16 OZO 1021,3 20
10.08.2020 19:00:00 - - - - - - -
10.08.2020 18:00:00 - - - - - - -
10.08.2020 17:00:00 23,3 19,3 29 16 OZO 1020,6 15
10.08.2020 16:00:00 - - - - - - -
10.08.2020 15:00:00 - - - - - - -
10.08.2020 14:00:00 24,7 19,1 29 16 OZO 1021,2 19
10.08.2020 13:00:00 - - - - - - -
10.08.2020 12:00:00 - - - - - - -
10.08.2020 11:00:00 25,0 19,6 22 12 OZO 1020,5 20
10.08.2020 10:00:00 - - - - - - -
10.08.2020 09:00:00 - - - - - - -
10.08.2020 08:00:00 20,9 17,7 7 4 ONO 1020,2 19
10.08.2020 07:00:00 - - - - - - -
10.08.2020 06:00:00 - - - - - - -
10.08.2020 05:00:00 - - - - - - -
10.08.2020 04:00:00 - - - - - - -
10.08.2020 03:00:00 - - - - - - -
10.08.2020 02:00:00 - - - - - - -
10.08.2020 01:00:00 - - - - - - -
10.08.2020 00:00:00 - - - - - - -
09.08.2020 23:00:00 - - - - - - -
09.08.2020 22:00:00 - - - - - - -
09.08.2020 21:00:00 - - - - - - -
09.08.2020 20:00:00 23,4 16,9 14 8 N 1019,0 35
09.08.2020 19:00:00 - - - - - - -
09.08.2020 18:00:00 - - - - - - -
09.08.2020 17:00:00 24,5 19,1 14 8 NNW 1019,2 23
09.08.2020 16:00:00 - - - - - - -
09.08.2020 15:00:00 - - - - - - -

tt = temperatuur
td = dauwpunt
ff = windsnelheid
dd = windrichting
ppp = luchtdruk
vv = zicht

Weerstations in de omgeving